Year,Month,Day,Hour,Minute,Value (Times are PST for temperature in C)
2009,06,29,00,00,12.90
2009,06,29,00,01,12.90
2009,06,29,00,02,12.90
2009,06,29,00,03,12.90
2009,06,29,00,04,12.80
2009,06,29,00,05,12.80
2009,06,29,00,06,12.80
2009,06,29,00,07,12.80
2009,06,29,00,08,12.80
2009,06,29,00,09,12.80
2009,06,29,00,10,12.80
2009,06,29,00,11,12.80
2009,06,29,00,12,12.70
2009,06,29,00,13,12.70
2009,06,29,00,14,12.70
2009,06,29,00,15,12.70
2009,06,29,00,16,12.70
2009,06,29,00,17,12.70
2009,06,29,00,18,12.70
2009,06,29,00,19,12.60
2009,06,29,00,20,12.60
2009,06,29,00,21,12.60
2009,06,29,00,22,12.60
2009,06,29,00,23,12.50
2009,06,29,00,24,12.50
2009,06,29,00,25,12.40
2009,06,29,00,26,12.40
2009,06,29,00,27,12.40
2009,06,29,00,28,12.40
2009,06,29,00,29,12.40
2009,06,29,00,30,12.40
2009,06,29,00,31,12.30
2009,06,29,00,32,12.30
2009,06,29,00,33,12.30
2009,06,29,00,34,12.30
2009,06,29,00,35,12.30
2009,06,29,00,36,12.30
2009,06,29,00,37,12.30
2009,06,29,00,38,12.30
2009,06,29,00,39,12.30
2009,06,29,00,40,12.20
2009,06,29,00,41,12.20
2009,06,29,00,42,12.20
2009,06,29,00,43,12.20
2009,06,29,00,44,12.20
2009,06,29,00,45,12.20
2009,06,29,00,46,12.20
2009,06,29,00,47,12.10
2009,06,29,00,48,12.10
2009,06,29,00,49,12.10
2009,06,29,00,50,12.10
2009,06,29,00,51,12.10
2009,06,29,00,52,12.00
2009,06,29,00,53,12.00
2009,06,29,00,54,12.00
2009,06,29,00,55,11.90
2009,06,29,00,56,11.90
2009,06,29,00,57,11.90
2009,06,29,00,58,11.90
2009,06,29,00,59,11.90
2009,06,29,01,00,11.90
2009,06,29,01,01,11.90
2009,06,29,01,02,11.80
2009,06,29,01,03,11.80
2009,06,29,01,04,11.80
2009,06,29,01,05,11.80
2009,06,29,01,06,11.80
2009,06,29,01,07,11.80
2009,06,29,01,08,11.80
2009,06,29,01,09,11.80
2009,06,29,01,10,11.80
2009,06,29,01,11,11.80
2009,06,29,01,12,11.80
2009,06,29,01,13,11.70
2009,06,29,01,14,11.70
2009,06,29,01,15,11.70
2009,06,29,01,16,11.70
2009,06,29,01,17,11.70
2009,06,29,01,18,11.70
2009,06,29,01,19,11.70
2009,06,29,01,20,11.70
2009,06,29,01,21,11.70
2009,06,29,01,22,11.60
2009,06,29,01,23,11.60
2009,06,29,01,24,11.60
2009,06,29,01,25,11.60
2009,06,29,01,26,11.60
2009,06,29,01,27,11.60
2009,06,29,01,28,11.60
2009,06,29,01,29,11.60
2009,06,29,01,30,11.60
2009,06,29,01,31,11.60
2009,06,29,01,32,11.50
2009,06,29,01,33,11.50
2009,06,29,01,34,11.50
2009,06,29,01,35,11.50
2009,06,29,01,36,11.50
2009,06,29,01,37,11.50
2009,06,29,01,38,11.50
2009,06,29,01,39,11.40
2009,06,29,01,40,11.40
2009,06,29,01,41,11.40
2009,06,29,01,42,11.40
2009,06,29,01,43,11.40
2009,06,29,01,44,11.40
2009,06,29,01,45,11.40
2009,06,29,01,46,11.40
2009,06,29,01,47,11.40
2009,06,29,01,48,11.40
2009,06,29,01,49,11.40
2009,06,29,01,50,11.30
2009,06,29,01,51,11.30
2009,06,29,01,52,11.30
2009,06,29,01,53,11.30
2009,06,29,01,54,11.30
2009,06,29,01,55,11.30
2009,06,29,01,56,11.30
2009,06,29,01,57,11.30
2009,06,29,01,58,11.30
2009,06,29,01,59,11.30
2009,06,29,02,00,11.30
2009,06,29,02,01,11.30
2009,06,29,02,02,11.30
2009,06,29,02,03,11.30
2009,06,29,02,04,11.30
2009,06,29,02,05,11.30
2009,06,29,02,06,11.30
2009,06,29,02,07,11.30
2009,06,29,02,08,11.30
2009,06,29,02,09,11.30
2009,06,29,02,10,11.20
2009,06,29,02,11,11.20
2009,06,29,02,12,11.20
2009,06,29,02,13,11.20
2009,06,29,02,14,11.20
2009,06,29,02,15,11.20
2009,06,29,02,16,11.20
2009,06,29,02,17,11.20
2009,06,29,02,18,11.20
2009,06,29,02,19,11.20
2009,06,29,02,20,11.20
2009,06,29,02,21,11.10
2009,06,29,02,22,11.20
2009,06,29,02,23,11.10
2009,06,29,02,24,11.10
2009,06,29,02,25,11.10
2009,06,29,02,26,11.10
2009,06,29,02,27,11.10
2009,06,29,02,28,11.10
2009,06,29,02,29,11.10
2009,06,29,02,30,11.10
2009,06,29,02,31,11.10
2009,06,29,02,32,11.10
2009,06,29,02,33,11.10
2009,06,29,02,34,11.10
2009,06,29,02,35,11.10
2009,06,29,02,36,11.10
2009,06,29,02,37,11.10
2009,06,29,02,38,11.10
2009,06,29,02,39,11.10
2009,06,29,02,40,11.10
2009,06,29,02,41,11.10
2009,06,29,02,42,11.10
2009,06,29,02,43,11.20
2009,06,29,02,44,11.20
2009,06,29,02,45,11.10
2009,06,29,02,46,11.10
2009,06,29,02,47,11.10
2009,06,29,02,48,11.10
2009,06,29,02,49,11.10
2009,06,29,02,50,11.10
2009,06,29,02,51,11.10
2009,06,29,02,52,11.10
2009,06,29,02,53,11.00
2009,06,29,02,54,11.00
2009,06,29,02,55,11.00
2009,06,29,02,56,11.00
2009,06,29,02,57,11.00
2009,06,29,02,58,10.90
2009,06,29,02,59,10.90
2009,06,29,03,00,10.90
2009,06,29,03,01,10.90
2009,06,29,03,02,10.90
2009,06,29,03,06,10.80
2009,06,29,03,07,10.80
2009,06,29,03,08,10.80
2009,06,29,03,09,10.80
2009,06,29,03,10,10.80
2009,06,29,03,11,10.80
2009,06,29,03,12,10.80
2009,06,29,03,13,10.80
2009,06,29,03,14,10.80
2009,06,29,03,15,10.80
2009,06,29,03,16,10.80
2009,06,29,03,17,10.80
2009,06,29,03,18,10.80
2009,06,29,03,19,10.70
2009,06,29,03,20,10.80
2009,06,29,03,21,10.80
2009,06,29,03,22,10.80
2009,06,29,03,23,10.80
2009,06,29,03,24,10.80
2009,06,29,03,25,10.80
2009,06,29,03,26,10.80
2009,06,29,03,27,10.80
2009,06,29,03,28,10.80
2009,06,29,03,29,10.80
2009,06,29,03,30,10.80
2009,06,29,03,31,10.80
2009,06,29,03,32,10.80
2009,06,29,03,33,10.90
2009,06,29,03,34,10.90
2009,06,29,03,35,10.90
2009,06,29,03,36,10.90
2009,06,29,03,37,10.90
2009,06,29,03,38,10.80
2009,06,29,03,39,10.80
2009,06,29,03,40,10.80
2009,06,29,03,41,10.80
2009,06,29,03,42,10.80
2009,06,29,03,43,10.80
2009,06,29,03,44,10.70
2009,06,29,03,45,10.70
2009,06,29,03,46,10.70
2009,06,29,03,47,10.80
2009,06,29,03,48,10.80
2009,06,29,03,49,10.70
2009,06,29,03,50,10.70
2009,06,29,03,51,10.70
2009,06,29,03,52,10.70
2009,06,29,03,53,10.70
2009,06,29,03,54,10.70
2009,06,29,03,55,10.60
2009,06,29,03,56,10.60
2009,06,29,03,57,10.60
2009,06,29,03,58,10.50
2009,06,29,03,59,10.50
2009,06,29,04,00,10.50
2009,06,29,04,01,10.50
2009,06,29,04,02,10.50
2009,06,29,04,03,10.50
2009,06,29,04,04,10.60
2009,06,29,04,05,10.60
2009,06,29,04,06,10.60
2009,06,29,04,07,10.70
2009,06,29,04,08,10.70
2009,06,29,04,09,10.70
2009,06,29,04,10,10.80
2009,06,29,04,11,10.80
2009,06,29,04,12,10.80
2009,06,29,04,13,10.80
2009,06,29,04,14,10.80
2009,06,29,04,15,10.90
2009,06,29,04,16,10.90
2009,06,29,04,17,10.90
2009,06,29,04,18,10.90
2009,06,29,04,19,10.90
2009,06,29,04,20,10.90
2009,06,29,04,21,10.90
2009,06,29,04,22,10.90
2009,06,29,04,23,10.90
2009,06,29,04,24,10.90
2009,06,29,04,25,10.90
2009,06,29,04,26,10.90
2009,06,29,04,27,10.90
2009,06,29,04,28,10.90
2009,06,29,04,29,10.90
2009,06,29,04,30,10.90
2009,06,29,04,31,10.90
2009,06,29,04,32,10.90
2009,06,29,04,33,11.00
2009,06,29,04,34,11.00
2009,06,29,04,35,11.00
2009,06,29,04,36,11.00
2009,06,29,04,37,11.10
2009,06,29,04,38,11.10
2009,06,29,04,39,11.10
2009,06,29,04,40,11.10
2009,06,29,04,41,11.10
2009,06,29,04,42,11.10
2009,06,29,04,43,11.10
2009,06,29,04,44,11.20
2009,06,29,04,45,11.20
2009,06,29,04,46,11.20
2009,06,29,04,47,11.20
2009,06,29,04,48,11.20
2009,06,29,04,49,11.20
2009,06,29,04,50,11.20
2009,06,29,04,51,11.20
2009,06,29,04,52,11.20
2009,06,29,04,53,11.20
2009,06,29,04,54,11.20
2009,06,29,04,55,11.20
2009,06,29,04,56,11.20
2009,06,29,04,57,11.20
2009,06,29,04,58,11.20
2009,06,29,04,59,11.20
2009,06,29,05,00,11.20
2009,06,29,05,01,11.20
2009,06,29,05,02,11.20
2009,06,29,05,03,11.20
2009,06,29,05,04,11.20
2009,06,29,05,05,11.20
2009,06,29,05,06,11.20
2009,06,29,05,07,11.20
2009,06,29,05,08,11.20
2009,06,29,05,09,11.20
2009,06,29,05,10,11.20
2009,06,29,05,11,11.20
2009,06,29,05,12,11.10
2009,06,29,05,13,11.10
2009,06,29,05,14,11.20
2009,06,29,05,15,11.20
2009,06,29,05,16,11.10
2009,06,29,05,17,11.10
2009,06,29,05,18,11.20
2009,06,29,05,19,11.20
2009,06,29,05,20,11.10
2009,06,29,05,21,11.10
2009,06,29,05,22,11.10
2009,06,29,05,23,11.10
2009,06,29,05,24,11.10
2009,06,29,05,25,11.10
2009,06,29,05,26,11.10
2009,06,29,05,27,11.10
2009,06,29,05,28,11.10
2009,06,29,05,29,11.10
2009,06,29,05,30,11.10
2009,06,29,05,31,11.10
2009,06,29,05,32,11.10
2009,06,29,05,33,11.10
2009,06,29,05,34,11.00
2009,06,29,05,35,11.00
2009,06,29,05,36,11.00
2009,06,29,05,37,11.00
2009,06,29,05,38,10.90
2009,06,29,05,39,10.90
2009,06,29,05,40,10.90
2009,06,29,05,41,10.90
2009,06,29,05,42,10.90
2009,06,29,05,43,10.80
2009,06,29,05,44,10.80
2009,06,29,05,45,10.80
2009,06,29,05,46,10.80
2009,06,29,05,47,10.80
2009,06,29,05,48,10.90
2009,06,29,05,49,10.90
2009,06,29,05,50,10.90
2009,06,29,05,51,10.90
2009,06,29,05,52,10.90
2009,06,29,05,53,10.90
2009,06,29,05,54,10.90
2009,06,29,05,55,10.90
2009,06,29,05,56,10.90
2009,06,29,05,57,10.90
2009,06,29,05,58,10.90
2009,06,29,05,59,10.80
2009,06,29,06,00,10.90
2009,06,29,06,01,10.90
2009,06,29,06,02,10.90
2009,06,29,06,03,10.90
2009,06,29,06,04,10.90
2009,06,29,06,05,10.90
2009,06,29,06,06,10.90
2009,06,29,06,07,10.90
2009,06,29,06,08,10.90
2009,06,29,06,09,10.90
2009,06,29,06,10,10.90
2009,06,29,06,11,10.80
2009,06,29,06,12,10.80
2009,06,29,06,13,10.80
2009,06,29,06,14,10.80
2009,06,29,06,15,10.80
2009,06,29,06,16,10.80
2009,06,29,06,17,10.80
2009,06,29,06,18,10.80
2009,06,29,06,19,10.80
2009,06,29,06,20,10.90
2009,06,29,06,21,10.90
2009,06,29,06,22,10.90
2009,06,29,06,23,10.90
2009,06,29,06,24,11.00
2009,06,29,06,25,11.00
2009,06,29,06,26,11.00
2009,06,29,06,27,11.00
2009,06,29,06,28,11.00
2009,06,29,06,29,11.00
2009,06,29,06,30,11.10
2009,06,29,06,31,11.10
2009,06,29,06,32,11.10
2009,06,29,06,33,11.10
2009,06,29,06,34,11.10
2009,06,29,06,35,11.10
2009,06,29,06,36,11.10
2009,06,29,06,37,11.10
2009,06,29,06,38,11.20
2009,06,29,06,39,11.20
2009,06,29,06,40,11.20
2009,06,29,06,41,11.20
2009,06,29,06,42,11.20
2009,06,29,06,43,11.20
2009,06,29,06,44,11.20
2009,06,29,06,45,11.20
2009,06,29,06,46,11.20
2009,06,29,06,47,11.20
2009,06,29,06,48,11.30
2009,06,29,06,49,11.30
2009,06,29,06,50,11.30
2009,06,29,06,51,11.30
2009,06,29,06,52,11.40
2009,06,29,06,53,11.40
2009,06,29,06,54,11.50
2009,06,29,06,55,11.60
2009,06,29,06,56,11.60
2009,06,29,06,57,11.60
2009,06,29,06,58,11.70
2009,06,29,06,59,11.70
2009,06,29,07,00,11.80
2009,06,29,07,01,11.80
2009,06,29,07,02,11.80
2009,06,29,07,03,11.90
2009,06,29,07,04,11.90
2009,06,29,07,05,12.00
2009,06,29,07,06,12.00
2009,06,29,07,07,12.10
2009,06,29,07,08,12.20
2009,06,29,07,09,12.20
2009,06,29,07,10,12.20
2009,06,29,07,11,12.30
2009,06,29,07,12,12.30
2009,06,29,07,13,12.40
2009,06,29,07,14,12.40
2009,06,29,07,15,12.40
2009,06,29,07,16,12.50
2009,06,29,07,17,12.50
2009,06,29,07,18,12.50
2009,06,29,07,19,12.60
2009,06,29,07,20,12.60
2009,06,29,07,21,12.60
2009,06,29,07,22,12.70
2009,06,29,07,23,12.70
2009,06,29,07,24,12.70
2009,06,29,07,25,12.80
2009,06,29,07,26,12.80
2009,06,29,07,27,12.80
2009,06,29,07,28,12.90
2009,06,29,07,29,12.90
2009,06,29,07,30,12.90
2009,06,29,07,31,13.00
2009,06,29,07,32,13.00
2009,06,29,07,33,13.10
2009,06,29,07,34,13.10
2009,06,29,07,35,13.10
2009,06,29,07,36,13.20
2009,06,29,07,37,13.20
2009,06,29,07,38,13.20
2009,06,29,07,39,13.20
2009,06,29,07,40,13.20
2009,06,29,07,41,13.30
2009,06,29,07,42,13.30
2009,06,29,07,43,13.30
2009,06,29,07,44,13.30
2009,06,29,07,45,13.40
2009,06,29,07,46,13.30
2009,06,29,07,47,13.30
2009,06,29,07,48,13.40
2009,06,29,07,49,13.40
2009,06,29,07,50,13.40
2009,06,29,07,51,13.40
2009,06,29,07,52,13.40
2009,06,29,07,53,13.50
2009,06,29,07,54,13.50
2009,06,29,07,55,13.60
2009,06,29,07,56,13.60
2009,06,29,07,57,13.60
2009,06,29,07,58,13.60
2009,06,29,07,59,13.60
2009,06,29,08,00,13.60
2009,06,29,08,01,13.60
2009,06,29,08,02,13.60
2009,06,29,08,03,13.60
2009,06,29,08,04,13.70
2009,06,29,08,05,13.70
2009,06,29,08,06,13.70
2009,06,29,08,07,13.70
2009,06,29,08,08,13.70
2009,06,29,08,09,13.80
2009,06,29,08,10,13.80
2009,06,29,08,11,13.80
2009,06,29,08,12,13.80
2009,06,29,08,13,13.90
2009,06,29,08,14,13.90
2009,06,29,08,15,13.90
2009,06,29,08,16,13.90
2009,06,29,08,17,14.00
2009,06,29,08,18,14.00
2009,06,29,08,19,14.10
2009,06,29,08,20,14.20
2009,06,29,08,21,14.20
2009,06,29,08,22,14.30
2009,06,29,08,23,14.30
2009,06,29,08,24,14.30
2009,06,29,08,25,14.40
2009,06,29,08,26,14.40
2009,06,29,08,27,14.40
2009,06,29,08,28,14.40
2009,06,29,08,29,14.50
2009,06,29,08,30,14.50
2009,06,29,08,31,14.60
2009,06,29,08,32,14.70
2009,06,29,08,33,14.80
2009,06,29,08,34,14.80
2009,06,29,08,35,14.90
2009,06,29,08,36,14.90
2009,06,29,08,37,15.00
2009,06,29,08,38,15.00
2009,06,29,08,39,15.00
2009,06,29,08,40,15.00
2009,06,29,08,41,15.00
2009,06,29,08,42,15.00
2009,06,29,08,43,15.00
2009,06,29,08,44,15.00
2009,06,29,08,45,15.10
2009,06,29,08,46,15.10
2009,06,29,08,47,15.20
2009,06,29,08,48,15.20
2009,06,29,08,49,15.20
2009,06,29,08,50,15.10
2009,06,29,08,51,15.20
2009,06,29,08,52,15.20
2009,06,29,08,53,15.20
2009,06,29,08,54,15.20
2009,06,29,08,55,15.30
2009,06,29,08,56,15.30
2009,06,29,08,57,15.30
2009,06,29,08,58,15.40
2009,06,29,08,59,15.40
2009,06,29,09,00,15.50
2009,06,29,09,01,15.50
2009,06,29,09,02,15.60
2009,06,29,09,03,15.70
2009,06,29,09,04,15.80
2009,06,29,09,05,15.90
2009,06,29,09,06,16.00
2009,06,29,09,07,16.10
2009,06,29,09,08,16.20
2009,06,29,09,09,16.30
2009,06,29,09,10,16.40
2009,06,29,09,11,16.40
2009,06,29,09,12,16.40
2009,06,29,09,13,16.40
2009,06,29,09,14,16.30
2009,06,29,09,15,16.30
2009,06,29,09,16,16.30
2009,06,29,09,17,16.40
2009,06,29,09,18,16.40
2009,06,29,09,19,16.40
2009,06,29,09,20,16.40
2009,06,29,09,21,16.40
2009,06,29,09,22,16.30
2009,06,29,09,23,16.30
2009,06,29,09,24,16.30
2009,06,29,09,25,16.20
2009,06,29,09,26,16.20
2009,06,29,09,27,16.20
2009,06,29,09,28,16.10
2009,06,29,09,29,16.10
2009,06,29,09,30,16.10
2009,06,29,09,31,16.10
2009,06,29,09,32,16.10
2009,06,29,09,33,16.10
2009,06,29,09,34,16.10
2009,06,29,09,35,16.10
2009,06,29,09,36,16.20
2009,06,29,09,37,16.20
2009,06,29,09,38,16.20
2009,06,29,09,39,16.30
2009,06,29,09,40,16.30
2009,06,29,09,41,16.40
2009,06,29,09,42,16.40
2009,06,29,09,43,16.40
2009,06,29,09,44,16.40
2009,06,29,09,45,16.40
2009,06,29,09,46,16.40
2009,06,29,09,47,16.40
2009,06,29,09,48,16.40
2009,06,29,09,49,16.40
2009,06,29,09,50,16.40
2009,06,29,09,51,16.40
2009,06,29,09,52,16.50
2009,06,29,09,53,16.50
2009,06,29,09,54,16.70
2009,06,29,09,55,16.80
2009,06,29,09,56,16.80
2009,06,29,09,57,16.80
2009,06,29,09,58,16.80
2009,06,29,09,59,16.80
2009,06,29,10,00,16.80
2009,06,29,10,01,16.80
2009,06,29,10,02,16.90
2009,06,29,10,03,16.90
2009,06,29,10,04,17.00
2009,06,29,10,05,17.10
2009,06,29,10,06,17.20
2009,06,29,10,07,17.20
2009,06,29,10,08,17.30
2009,06,29,10,09,17.40
2009,06,29,10,10,17.40
2009,06,29,10,11,17.40
2009,06,29,10,12,17.40
2009,06,29,10,13,17.40
2009,06,29,10,14,17.40
2009,06,29,10,15,17.40
2009,06,29,10,16,17.40
2009,06,29,10,17,17.40
2009,06,29,10,18,17.50
2009,06,29,10,19,17.50
2009,06,29,10,20,17.60
2009,06,29,10,21,17.60
2009,06,29,10,22,17.40
2009,06,29,10,23,17.30
2009,06,29,10,24,17.30
2009,06,29,10,25,17.30
2009,06,29,10,26,17.40
2009,06,29,10,27,17.40
2009,06,29,10,28,17.40
2009,06,29,10,29,17.40
2009,06,29,10,30,17.40
2009,06,29,10,31,17.40
2009,06,29,10,32,17.30
2009,06,29,10,33,17.30
2009,06,29,10,34,17.30
2009,06,29,10,35,17.30
2009,06,29,10,36,17.30
2009,06,29,10,37,17.40
2009,06,29,10,38,17.40
2009,06,29,10,39,17.50
2009,06,29,10,40,17.50
2009,06,29,10,41,17.50
2009,06,29,10,42,17.50
2009,06,29,10,43,17.50
2009,06,29,10,44,17.40
2009,06,29,10,45,17.40
2009,06,29,10,46,17.30
2009,06,29,10,47,17.30
2009,06,29,10,48,17.10
2009,06,29,10,49,17.00
2009,06,29,10,50,16.90
2009,06,29,10,51,16.90
2009,06,29,10,52,16.90
2009,06,29,10,53,16.90
2009,06,29,10,54,16.90
2009,06,29,10,55,16.90
2009,06,29,10,56,16.90
2009,06,29,10,57,17.00
2009,06,29,10,58,17.00
2009,06,29,10,59,17.10
2009,06,29,11,00,17.10
2009,06,29,11,01,17.20
2009,06,29,11,02,17.30
2009,06,29,11,03,17.50
2009,06,29,11,04,17.60
2009,06,29,11,05,17.60
2009,06,29,11,06,17.60
2009,06,29,11,07,17.60
2009,06,29,11,08,17.50
2009,06,29,11,09,17.60
2009,06,29,11,10,17.60
2009,06,29,11,11,17.70
2009,06,29,11,12,17.70
2009,06,29,11,13,17.70
2009,06,29,11,14,17.70
2009,06,29,11,15,17.70
2009,06,29,11,16,17.80
2009,06,29,11,17,17.80
2009,06,29,11,18,17.80
2009,06,29,11,19,17.80
2009,06,29,11,20,17.70
2009,06,29,11,21,17.70
2009,06,29,11,22,17.70
2009,06,29,11,23,17.70
2009,06,29,11,24,17.60
2009,06,29,11,25,17.50
2009,06,29,11,26,17.50
2009,06,29,11,27,17.40
2009,06,29,11,28,17.50
2009,06,29,11,29,17.50
2009,06,29,11,30,17.60
2009,06,29,11,31,17.60
2009,06,29,11,32,17.50
2009,06,29,11,33,17.50
2009,06,29,11,34,17.50
2009,06,29,11,35,17.50
2009,06,29,11,36,17.60
2009,06,29,11,37,17.60
2009,06,29,11,38,17.60
2009,06,29,11,39,17.60
2009,06,29,11,40,17.60
2009,06,29,11,41,17.60
2009,06,29,11,42,17.60
2009,06,29,11,43,17.70
2009,06,29,11,44,17.70
2009,06,29,11,45,17.70
2009,06,29,11,46,17.80
2009,06,29,11,47,17.80
2009,06,29,11,48,17.80
2009,06,29,11,49,17.80
2009,06,29,11,50,17.90
2009,06,29,11,51,17.90
2009,06,29,11,52,17.90
2009,06,29,11,53,17.80
2009,06,29,11,54,17.80
2009,06,29,11,55,17.80
2009,06,29,11,56,17.90
2009,06,29,11,57,18.00
2009,06,29,11,58,18.10
2009,06,29,11,59,18.10
2009,06,29,12,00,18.10
2009,06,29,12,01,18.10
2009,06,29,12,02,18.10
2009,06,29,12,03,18.20
2009,06,29,12,04,18.30
2009,06,29,12,05,18.30
2009,06,29,12,06,18.30
2009,06,29,12,07,18.40
2009,06,29,12,08,18.40
2009,06,29,12,09,18.40
2009,06,29,12,10,18.50
2009,06,29,12,11,18.50
2009,06,29,12,12,18.50
2009,06,29,12,13,18.50
2009,06,29,12,14,18.60
2009,06,29,12,15,18.70
2009,06,29,12,16,18.70
2009,06,29,12,17,18.60
2009,06,29,12,18,18.50
2009,06,29,12,19,18.40
2009,06,29,12,20,18.40
2009,06,29,12,21,18.40
2009,06,29,12,22,18.40
2009,06,29,12,23,18.40
2009,06,29,12,24,18.40
2009,06,29,12,25,18.40
2009,06,29,12,26,18.50
2009,06,29,12,27,18.60
2009,06,29,12,28,18.50
2009,06,29,12,29,18.50
2009,06,29,12,30,18.60
2009,06,29,12,31,18.60
2009,06,29,12,32,18.70
2009,06,29,12,33,18.70
2009,06,29,12,34,18.80
2009,06,29,12,35,18.90
2009,06,29,12,36,18.90
2009,06,29,12,37,18.90
2009,06,29,12,38,18.90
2009,06,29,12,39,18.90
2009,06,29,12,40,18.80
2009,06,29,12,41,18.80
2009,06,29,12,42,18.90
2009,06,29,12,43,18.90
2009,06,29,12,44,18.90
2009,06,29,12,45,19.00
2009,06,29,12,46,19.00
2009,06,29,12,47,19.10
2009,06,29,12,48,19.10
2009,06,29,12,49,19.00
2009,06,29,12,50,18.90
2009,06,29,12,51,19.00
2009,06,29,12,52,19.10
2009,06,29,12,53,19.10
2009,06,29,12,54,19.20
2009,06,29,12,55,19.20
2009,06,29,12,56,19.10
2009,06,29,12,57,19.20
2009,06,29,12,58,19.20
2009,06,29,12,59,19.30
2009,06,29,13,00,19.20
2009,06,29,13,01,19.20
2009,06,29,13,02,19.10
2009,06,29,13,03,19.00
2009,06,29,13,04,19.00
2009,06,29,13,05,18.90
2009,06,29,13,06,18.70
2009,06,29,13,07,18.60
2009,06,29,13,08,18.50
2009,06,29,13,09,18.40
2009,06,29,13,10,18.30
2009,06,29,13,11,18.30
2009,06,29,13,12,18.30
2009,06,29,13,13,18.30
2009,06,29,13,14,18.40
2009,06,29,13,15,18.50
2009,06,29,13,16,18.60
2009,06,29,13,17,18.70
2009,06,29,13,18,18.70
2009,06,29,13,19,18.70
2009,06,29,13,20,18.70
2009,06,29,13,21,18.60
2009,06,29,13,22,18.50
2009,06,29,13,23,18.50
2009,06,29,13,24,18.50
2009,06,29,13,25,18.50
2009,06,29,13,26,18.50
2009,06,29,13,27,18.40
2009,06,29,13,28,18.40
2009,06,29,13,29,18.30
2009,06,29,13,30,18.30
2009,06,29,13,31,18.30
2009,06,29,13,32,18.20
2009,06,29,13,33,18.10
2009,06,29,13,34,18.10
2009,06,29,13,35,18.10
2009,06,29,13,36,18.20
2009,06,29,13,37,18.20
2009,06,29,13,38,18.30
2009,06,29,13,39,18.40
2009,06,29,13,40,18.50
2009,06,29,13,41,18.60
2009,06,29,13,42,18.60
2009,06,29,13,43,18.60
2009,06,29,13,44,18.70
2009,06,29,13,45,18.70
2009,06,29,13,46,18.70
2009,06,29,13,47,18.80
2009,06,29,13,48,18.80
2009,06,29,13,49,18.90
2009,06,29,13,50,19.00
2009,06,29,13,51,19.00
2009,06,29,13,52,19.10
2009,06,29,13,53,19.00
2009,06,29,13,54,19.00
2009,06,29,13,55,18.90
2009,06,29,13,56,18.80
2009,06,29,13,57,18.80
2009,06,29,13,58,18.80
2009,06,29,13,59,18.80
2009,06,29,14,00,18.90
2009,06,29,14,01,19.00
2009,06,29,14,02,19.00
2009,06,29,14,03,19.10
2009,06,29,14,04,19.20
2009,06,29,14,05,19.20
2009,06,29,14,06,19.30
2009,06,29,14,07,19.40
2009,06,29,14,08,19.40
2009,06,29,14,09,19.50
2009,06,29,14,10,19.60
2009,06,29,14,11,19.60
2009,06,29,14,12,19.70
2009,06,29,14,13,19.70
2009,06,29,14,14,19.70
2009,06,29,14,15,19.60
2009,06,29,14,16,19.60
2009,06,29,14,17,19.60
2009,06,29,14,18,19.50
2009,06,29,14,19,19.50
2009,06,29,14,20,19.50
2009,06,29,14,21,19.40
2009,06,29,14,22,19.40
2009,06,29,14,23,19.40
2009,06,29,14,24,19.40
2009,06,29,14,25,19.40
2009,06,29,14,26,19.40
2009,06,29,14,27,19.50
2009,06,29,14,28,19.50
2009,06,29,14,29,19.60
2009,06,29,14,30,19.70
2009,06,29,14,31,19.80
2009,06,29,14,32,20.00
2009,06,29,14,33,20.10
2009,06,29,14,34,20.20
2009,06,29,14,35,20.40
2009,06,29,14,36,20.40
2009,06,29,14,37,20.50
2009,06,29,14,38,20.60
2009,06,29,14,39,20.60
2009,06,29,14,40,20.60
2009,06,29,14,41,20.50
2009,06,29,14,42,20.50
2009,06,29,14,43,20.50
2009,06,29,14,44,20.50
2009,06,29,14,45,20.50
2009,06,29,14,46,20.50
2009,06,29,14,47,20.50
2009,06,29,14,48,20.40
2009,06,29,14,49,20.40
2009,06,29,14,50,20.40
2009,06,29,14,51,20.40
2009,06,29,14,52,20.30
2009,06,29,14,53,20.20
2009,06,29,14,54,20.10
2009,06,29,14,55,20.10
2009,06,29,14,56,20.10
2009,06,29,14,57,20.10
2009,06,29,14,58,20.10
2009,06,29,14,59,20.10
2009,06,29,15,00,20.20
2009,06,29,15,01,20.30
2009,06,29,15,02,20.50
2009,06,29,15,03,20.60
2009,06,29,15,04,20.80
2009,06,29,15,05,20.90
2009,06,29,15,06,20.90
2009,06,29,15,07,20.90
2009,06,29,15,08,20.90
2009,06,29,15,09,20.80
2009,06,29,15,10,20.80
2009,06,29,15,11,20.80
2009,06,29,15,12,20.80
2009,06,29,15,13,20.70
2009,06,29,15,14,20.70
2009,06,29,15,15,20.70
2009,06,29,15,16,20.80
2009,06,29,15,17,20.80
2009,06,29,15,18,20.80
2009,06,29,15,19,20.90
2009,06,29,15,20,20.80
2009,06,29,15,21,20.90
2009,06,29,15,22,20.90
2009,06,29,15,23,20.90
2009,06,29,15,24,20.90
2009,06,29,15,25,20.90
2009,06,29,15,26,20.80
2009,06,29,15,27,20.80
2009,06,29,15,28,20.80
2009,06,29,15,29,20.80
2009,06,29,15,30,20.80
2009,06,29,15,31,20.70
2009,06,29,15,32,20.70
2009,06,29,15,33,20.70
2009,06,29,15,34,20.70
2009,06,29,15,35,20.70
2009,06,29,15,36,20.70
2009,06,29,15,37,20.70
2009,06,29,15,38,20.80
2009,06,29,15,39,20.90
2009,06,29,15,40,20.90
2009,06,29,15,41,20.90
2009,06,29,15,42,20.90
2009,06,29,15,43,20.80
2009,06,29,15,44,20.70
2009,06,29,15,45,20.70
2009,06,29,15,46,20.70
2009,06,29,15,47,20.80
2009,06,29,15,48,20.80
2009,06,29,15,49,20.80
2009,06,29,15,50,20.80
2009,06,29,15,51,20.90
2009,06,29,15,52,20.90
2009,06,29,15,53,20.90
2009,06,29,15,54,21.00
2009,06,29,15,55,21.00
2009,06,29,15,56,20.90
2009,06,29,15,57,20.90
2009,06,29,15,58,20.90
2009,06,29,15,59,20.90
2009,06,29,16,00,20.80
2009,06,29,16,01,20.80
2009,06,29,16,02,20.80
2009,06,29,16,03,20.70
2009,06,29,16,04,20.80
2009,06,29,16,05,20.90
2009,06,29,16,06,21.00
2009,06,29,16,07,21.10
2009,06,29,16,08,21.10
2009,06,29,16,09,21.00
2009,06,29,16,10,20.90
2009,06,29,16,11,20.90
2009,06,29,16,12,20.90
2009,06,29,16,13,20.90
2009,06,29,16,14,20.90
2009,06,29,16,15,20.90
2009,06,29,16,16,21.00
2009,06,29,16,17,21.10
2009,06,29,16,18,21.10
2009,06,29,16,19,21.00
2009,06,29,16,20,21.00
2009,06,29,16,21,20.90
2009,06,29,16,22,20.90
2009,06,29,16,23,20.80
2009,06,29,16,24,20.80
2009,06,29,16,25,20.80
2009,06,29,16,26,20.80
2009,06,29,16,27,20.80
2009,06,29,16,28,20.80
2009,06,29,16,29,20.80
2009,06,29,16,30,20.90
2009,06,29,16,31,20.90
2009,06,29,16,32,20.90
2009,06,29,16,33,20.70
2009,06,29,16,34,20.70
2009,06,29,16,35,20.80
2009,06,29,16,36,20.80
2009,06,29,16,37,20.80
2009,06,29,16,38,20.80
2009,06,29,16,39,20.90
2009,06,29,16,40,20.90
2009,06,29,16,41,20.90
2009,06,29,16,42,21.00
2009,06,29,16,43,21.00
2009,06,29,16,44,21.00
2009,06,29,16,45,21.10
2009,06,29,16,46,21.10
2009,06,29,16,47,21.10
2009,06,29,16,48,21.10
2009,06,29,16,49,21.10
2009,06,29,16,50,21.10
2009,06,29,16,51,21.10
2009,06,29,16,52,21.00
2009,06,29,16,53,21.00
2009,06,29,16,54,21.00
2009,06,29,16,55,20.90
2009,06,29,16,56,20.90
2009,06,29,16,57,21.00
2009,06,29,16,58,21.10
2009,06,29,16,59,21.10
2009,06,29,17,00,21.10
2009,06,29,17,01,21.10
2009,06,29,17,02,21.00
2009,06,29,17,03,20.90
2009,06,29,17,04,20.80
2009,06,29,17,05,20.70
2009,06,29,17,06,20.70
2009,06,29,17,07,20.70
2009,06,29,17,08,20.70
2009,06,29,17,09,20.70
2009,06,29,17,10,20.70
2009,06,29,17,11,20.70
2009,06,29,17,12,20.70
2009,06,29,17,13,20.70
2009,06,29,17,14,20.80
2009,06,29,17,15,20.80
2009,06,29,17,16,20.80
2009,06,29,17,17,20.80
2009,06,29,17,18,20.90
2009,06,29,17,19,20.90
2009,06,29,17,20,21.00
2009,06,29,17,21,21.10
2009,06,29,17,22,21.10